Showing default

SPOQC, 68423

Orbit data source: Space-Track

SPOQC, 68423 is a Dutch payload satellite in SSO that was launched on Mon, 30 Mar 2026 UTC via an FALCON 9 launch vehicle from the Air Force Western Test Range (AFWTR). Payload-class satellites include a variety of spacecraft equipped with specific instruments for various scientific and technological missions. These include communications satellites like Starlink; space stations such as the ISS; scientific satellites like the Hubble; Earth observation satellites from companies like Planet Labs, Umbra, and HawkEye 360; GPS; miniature CubeSats for education and research; and military/defense satellites.

Loading next visibility...
Identifier
68423, 2026-067H
Orbit
SSO
Country
Flag of NLNL / NETH
Related business
Manufacturer
ISIS BV
Mission
Operational Amateur Communications
Bus & Motor
CUBESAT 12U, Unknown motor
Mass
~20 kg wet, ~20 kg dry
Launch date (UTC)
2026-03-30 (6 months ago)
Launch vehicle
FALCON 9
Launch site
Air Force Western Test Range (AFWTR)
Object type
Payload
Rocket body
Debris
Shape & HBR
Box, 0.2 m
Radar Cross Section
0.080 m², Medium (>0.1 m² and < 1m²)

Expand to show TLE details & history
Last TLE update: 6 hours ago

TLE from 6 hours ago
0 SPOQC
1 68423U 26067H   26263.15919546  .00003588  00000-0  17179-3 0  9995
2 68423  97.4614 220.4134 0001445  72.9919 287.1474 15.19595495 26366
Epoch: 2026-09-20T03:49Z
TLE epoch observation values (Epoch: 2026-09-20T03:49:14.487Z)
Latitude
-0.00004°
Longitude
164.04566°
Altitude
509.857 km
Speed
7.609 km/s
True Right ascension
14h 41m 39s
True Declination
0° 00' 00"
Sunlit
Object was in daylight at epoch
Visualization orbit readout
Latitude
Unknown
Longitude
Unknown
Altitude
Unknown
Speed
Unknown
Apparent Right ascension
Unknown
Apparent Declination
Unknown
Sunlit
N/A
Visualization observer readout
Local Sidereal Time
03:11:43
Azimuth
Unknown
Elevation
Unknown
Doppler factor
Unknown
Orbital elements
Apogee altitude
505.025 km
Perigee altitude
503.036 km
Semi-major axis
6,882.168 km
Eccentricity
0.00014
Inclination
97.4614°
RAAN
220.4134°
Arg. of periapsis
72.9919°
True anomaly
287.13158°
Mean anomaly
287.1474°
Eccentric anomaly
287.13949°
Mean motion
3.8015 °/min
Orbital period
94.7 mins
BSTAR
0.00017179
Loading maneuver chart data...
Computing Atmospheric mass density...
Loading historical data...
Loading historical data...
Loading historical data...
Loading historical data...
Loading historical data...
Loading historical data...
Loading historical data...

Documentation

Showing up to 5 results
|